Regional Weather Roundup
Issued by NWS Green Bay, WI

Home | Current Version | Previous Version | Graphics & Text | Print | Product List | Glossary Off
Versions: 1 2 3 4 5 6 7 8 9 10 11 12 13 14 15 16 17 18 19 20 21 22 23 24 25 26 27 28 29 30 31 32 33 34 35 36 37 38 39 40 41 42 43 44 45 46 47 48 49 50

000
ASUS43 KGRB 241959
RWRGRB

NORTH-CENTRAL AND NORTHEAST WISCONSIN REGIONAL WEATHER ROUNDUP
NATIONAL WEATHER SERVICE GREEN BAY WI
300 PM CDT THU APR 24 2014

WIZ005-009-010>012-018-019-242100-
NORTH CENTRAL WISCONSIN

CITY           SKY/WX    TMP DP  RH WIND       PRES   REMARKS
IRONWOOD       CLOUDY    37  32  81 E14       29.80F
MANITOWISH WTR NOT AVBL
ARBOR VITAE    NOT AVBL
EAGLE RIVER    NOT AVBL
LAND O LAKES   NOT AVBL
RHINELANDER    MIX PCPN  33  32  96 E17       29.82F
PHILLIPS       NOT AVBL
ANTIGO         NOT AVBL
TOMAHAWK       NOT AVBL
MERRILL        NOT AVBL
$$

WIZ013-073-242100-
NORTHEAST WISCONSIN

CITY           SKY/WX    TMP DP  RH WIND       PRES   REMARKS
IRON MOUNTAIN  LGT RAIN  37  35  92 SE10      29.92F FOG
MARINETTE      CLOUDY    36  34  93 E13       29.95F
$$

WIZ017-030-035>037-045-242100-
CENTRAL WISCONSIN

CITY           SKY/WX    TMP DP  RH WIND       PRES   REMARKS
MEDFORD        NOT AVBL
WAUSAU         LGT RAIN  41  40  96 SE14G24   29.79S FOG
MOSINEE        LGT RAIN  39  39 100 E15G24    29.80S
MARSHFIELD     RAIN      42  38  85 SE18G28   29.75F FOG
WISC RAPIDS    LGT RAIN  43  39  86 E15G24    29.78F FOG
STEVENS POINT  NOT AVBL
WAUPACA        NOT AVBL
SHAWANO        NOT AVBL
CLINTONVILLE   NOT AVBL
$$

WIZ038-039-048-051-242100-
FOX VALLEY

CITY           SKY/WX    TMP DP  RH WIND       PRES   REMARKS
NWS GREEN BAY  LGT RAIN  43  38  82 E16       29.90F
APPLETON       DRIZZLE   43  36  75 E14G21    29.87F FOG
OSHKOSH        LGT RAIN  44  38  79 E14G24    29.85F
FOND DU LAC    CLOUDY    46  36  68 SE14      29.84F
$$

WIZ022-050-052-242100-
EAST CENTRAL WISCONSIN

CITY           SKY/WX    TMP DP  RH WIND       PRES   REMARKS
STURGEON BAY   CLOUDY    39  36  87 E12       29.96F
MANITOWOC      NOT AVBL
SHEBOYGAN      CLOUDY    44  35  70 E10G21    29.89F
$$

LMZ563-521-522-541>543-242100-
LAKESHORE

STATION/POSITION TIME  TEMP    WIND        PRES    VSBY  WAVE
                       AIR SEA DIR/SP/G                  HT/PER
                 (UTC) (F)     (DEG/KT/KT) (MB)    (MI)  (FT/S)
SHEBOYGAN LKSHOR 1900   41      90/ 15/ 17 1014.1F
KEWAUNEE LKSHORE 1900   38      70/  9/ 13 1015.0F
NORTHPORT PIER   1900   37     200/  2/  3 1016.6F
SISTER BAY LKSHO 1900   38      CALM  /  3   N/A
MENOMINEE LKSHOR 1900   33      40/ 11/ 13 1016.0F
$$



USA.gov is the U.S. government's official web portal to all federal, state and local government web resources and services.